When you browse on this site, cookies collect data to enhance your experience and personalize the content and advertising you see.
Visit our Privacy Policy to learn more. By continuing to use the site, you agree to this use of cookies and data.
  • In Schweiz
  • Länderverzeichnis
  • Für 7 Tage
  • Wassertemperatur
  • Satellitenkarten
  • Wetterkarte
  • Widgets
  • user-avatar
    Anmelden

    Stündliche Wetter Eldoret

    Heute, 21 Januar, Montag

    Zeit Temperatur Niederschläge Wind Luftdruck Luftfeuchtigkeit
    00:00 +15°C° 0.2 mm 0 m/S 598 mmHg 84%
    01:00 +16°C° 0.2 mm 1 m/S 597 mmHg 84%
    02:00 +15°C° 0 mm 1 m/S 597 mmHg 84%
    03:00 +15°C° 0 mm 1 m/S 597 mmHg 84%
    04:00 +14°C° 0 mm 1 m/S 597 mmHg 84%
    05:00 +14°C° 0 mm 1 m/S 597 mmHg 85%
    06:00 +16°C° 0 mm 1 m/S 598 mmHg 76%
    07:00 +19°C° 0 mm 1 m/S 599 mmHg 68%
    08:00 +21°C° 0 mm 1 m/S 600 mmHg 58%
    09:00 +22°C° 0 mm 1 m/S 600 mmHg 52%
    10:00 +23°C° 0 mm 1 m/S 600 mmHg 46%
    11:00 +24°C° 0 mm 1 m/S 600 mmHg 40%
    12:00 +24°C° 0 mm 1 m/S 600 mmHg 43%
    13:00 +23°C° 0 mm 1 m/S 599 mmHg 45%
    14:00 +23°C° 0 mm 1 m/S 598 mmHg 47%
    15:00 +22°C° 0 mm 1 m/S 597 mmHg 52%
    16:00 +19°C° 0 mm 0 m/S 597 mmHg 57%
    17:00 +18°C° 0 mm 0 m/S 596 mmHg 62%
    18:00 +19°C° 0 mm 1 m/S 596 mmHg 65%
    19:00 +18°C° 0 mm 1 m/S 597 mmHg 67%
    20:00 +16°C° 0 mm 1 m/S 597 mmHg 69%
    21:00 +16°C° 0 mm 1 m/S 597 mmHg 69%
    22:00 +15°C° 0 mm 2 m/S 597 mmHg 68%
    23:00 +15°C° 0 mm 2 m/S 597 mmHg 68%

    Morgen, 22 Januar, Dienstag

    Zeit Temperatur Niederschläge Wind Luftdruck Luftfeuchtigkeit
    00:00 +14°C° 0 mm 2 m/S 597 mmHg 71%
    01:00 +14°C° 0 mm 2 m/S 596 mmHg 74%
    02:00 +14°C° 0 mm 2 m/S 596 mmHg 77%
    03:00 +14°C° 0 mm 2 m/S 596 mmHg 77%
    04:00 +14°C° 0 mm 2 m/S 596 mmHg 77%
    05:00 +14°C° 0 mm 2 m/S 596 mmHg 76%
    06:00 +16°C° 0 mm 3 m/S 597 mmHg 66%
    07:00 +18°C° 0 mm 3 m/S 598 mmHg 56%
    08:00 +21°C° 0 mm 3 m/S 599 mmHg 46%
    09:00 +24°C° 0 mm 3 m/S 600 mmHg 40%
    10:00 +26°C° 0 mm 3 m/S 600 mmHg 34%
    11:00 +28°C° 0 mm 3 m/S 601 mmHg 27%
    12:00 +28°C° 0 mm 2 m/S 600 mmHg 26%
    13:00 +28°C° 0 mm 2 m/S 600 mmHg 26%
    14:00 +29°C° 0 mm 2 m/S 599 mmHg 25%
    15:00 +27°C° 0 mm 2 m/S 598 mmHg 29%
    16:00 +25°C° 0 mm 1 m/S 597 mmHg 34%
    17:00 +23°C° 0 mm 1 m/S 596 mmHg 38%
    18:00 +22°C° 0 mm 1 m/S 597 mmHg 39%
    19:00 +22°C° 0 mm 1 m/S 597 mmHg 41%
    20:00 +21°C° 0 mm 1 m/S 598 mmHg 42%
    21:00 +19°C° 0 mm 2 m/S 598 mmHg 44%
    22:00 +18°C° 0 mm 2 m/S 598 mmHg 47%
    23:00 +17°C° 0 mm 2 m/S 598 mmHg 49%

    übermorgen, 23 Januar, Mittwoch

    Zeit Temperatur Niederschläge Wind Luftdruck Luftfeuchtigkeit
    00:00 +17°C° 0 mm 3 m/S 597 mmHg 56%
    01:00 +16°C° 0 mm 3 m/S 596 mmHg 63%
    02:00 +14°C° 0 mm 3 m/S 596 mmHg 70%
    03:00 +14°C° 0 mm 3 m/S 596 mmHg 69%
    04:00 +14°C° 0 mm 3 m/S 596 mmHg 69%
    05:00 +14°C° 0 mm 3 m/S 596 mmHg 69%
    06:00 +17°C° 0 mm 3 m/S 597 mmHg 61%
    07:00 +19°C° 0 mm 4 m/S 598 mmHg 54%
    08:00 +21°C° 0 mm 4 m/S 599 mmHg 46%
    09:00 +24°C° 0 mm 3 m/S 600 mmHg 39%
    10:00 +27°C° 0 mm 3 m/S 600 mmHg 31%
    11:00 +29°C° 0 mm 2 m/S 601 mmHg 24%
    12:00 +29°C° 0 mm 2 m/S 600 mmHg 24%
    13:00 +29°C° 0 mm 2 m/S 599 mmHg 24%
    14:00 +29°C° 0 mm 2 m/S 598 mmHg 24%
    15:00 +27°C° 0 mm 2 m/S 598 mmHg 29%
    16:00 +25°C° 0 mm 1 m/S 597 mmHg 34%
    17:00 +24°C° 0 mm 1 m/S 596 mmHg 39%
    18:00 +23°C° 0 mm 1 m/S 597 mmHg 41%
    19:00 +22°C° 0 mm 1 m/S 597 mmHg 44%
    20:00 +21°C° 0 mm 1 m/S 598 mmHg 46%
    21:00 +19°C° 0 mm 2 m/S 598 mmHg 49%
    22:00 +18°C° 0 mm 3 m/S 598 mmHg 53%
    23:00 +18°C° 0 mm 3 m/S 598 mmHg 56%

    24 Januar, Donnerstag

    Zeit Temperatur Niederschläge Wind Luftdruck Luftfeuchtigkeit
    00:00 +17°C° 0 mm 3 m/S 597 mmHg 58%
    01:00 +17°C° 0 mm 4 m/S 597 mmHg 60%
    02:00 +17°C° 0 mm 4 m/S 597 mmHg 62%
    03:00 +15°C° 0 mm 4 m/S 597 mmHg 60%
    04:00 +15°C° 0 mm 4 m/S 597 mmHg 59%
    05:00 +15°C° 0 mm 4 m/S 597 mmHg 57%
    06:00 +17°C° 0 mm 4 m/S 598 mmHg 51%
    07:00 +19°C° 0 mm 4 m/S 598 mmHg 45%
    08:00 +21°C° 0 mm 4 m/S 599 mmHg 39%
    09:00 +23°C° 0 mm 4 m/S 600 mmHg 32%
    10:00 +26°C° 0 mm 3 m/S 601 mmHg 26%
    11:00 +29°C° 0 mm 2 m/S 601 mmHg 20%
    12:00 +29°C° 0 mm 2 m/S 601 mmHg 19%
    13:00 +30°C° 0 mm 2 m/S 600 mmHg 18%
    14:00 +30°C° 0 mm 2 m/S 600 mmHg 17%
    15:00 +29°C° 0 mm 2 m/S 599 mmHg 21%
    16:00 +27°C° 0 mm 2 m/S 598 mmHg 26%
    17:00 +25°C° 0 mm 2 m/S 598 mmHg 31%
    18:00 +23°C° 0 mm 2 m/S 598 mmHg 35%
    19:00 +21°C° 0 mm 2 m/S 598 mmHg 39%
    20:00 +19°C° 0 mm 2 m/S 598 mmHg 43%
    21:00 +18°C° 0 mm 2 m/S 598 mmHg 46%
    22:00 +18°C° 0 mm 2 m/S 598 mmHg 48%
    23:00 +17°C° 0 mm 3 m/S 598 mmHg 50%

    25 Januar, Freitag

    Zeit Temperatur Niederschläge Wind Luftdruck Luftfeuchtigkeit
    00:00 +17°C° 0 mm 3 m/S 597 mmHg 52%
    01:00 +16°C° 0 mm 3 m/S 597 mmHg 55%
    02:00 +16°C° 0 mm 3 m/S 596 mmHg 58%
    03:00 +16°C° 0 mm 3 m/S 596 mmHg 55%
    04:00 +14°C° 0 mm 4 m/S 597 mmHg 51%
    05:00 +14°C° 0 mm 4 m/S 597 mmHg 48%
    06:00 +17°C° 0 mm 4 m/S 598 mmHg 43%
    07:00 +19°C° 0 mm 4 m/S 599 mmHg 39%
    08:00 +20°C° 0 mm 5 m/S 600 mmHg 35%
    09:00 +23°C° 0 mm 4 m/S 601 mmHg 29%
    10:00 +26°C° 0 mm 4 m/S 601 mmHg 23%
    11:00 +29°C° 0 mm 3 m/S 602 mmHg 17%
    12:00 +29°C° 0 mm 3 m/S 601 mmHg 17%
    13:00 +30°C° 0 mm 4 m/S 600 mmHg 16%
    14:00 +30°C° 0 mm 4 m/S 600 mmHg 15%
    15:00 +29°C° 0 mm 3 m/S 599 mmHg 20%
    16:00 +27°C° 0 mm 3 m/S 599 mmHg 24%
    17:00 +26°C° 0 mm 3 m/S 598 mmHg 28%
    18:00 +24°C° 0 mm 2 m/S 598 mmHg 34%
    19:00 +21°C° 0 mm 2 m/S 598 mmHg 39%
    20:00 +20°C° 0 mm 1 m/S 598 mmHg 45%
    21:00 +18°C° 0 mm 2 m/S 598 mmHg 48%
    22:00 +17°C° 0 mm 2 m/S 598 mmHg 50%
    23:00 +16°C° 0 mm 3 m/S 598 mmHg 53%

    26 Januar, Samstag

    Zeit Temperatur Niederschläge Wind Luftdruck Luftfeuchtigkeit
    00:00 +16°C° 0 mm 3 m/S 597 mmHg 57%
    01:00 +16°C° 0 mm 3 m/S 597 mmHg 61%
    02:00 +14°C° 0 mm 3 m/S 596 mmHg 65%
    03:00 +14°C° 0 mm 3 m/S 596 mmHg 64%
    04:00 +14°C° 0 mm 3 m/S 597 mmHg 63%
    05:00 +14°C° 0 mm 3 m/S 597 mmHg 62%
    06:00 +17°C° 0 mm 4 m/S 598 mmHg 53%
    07:00 +19°C° 0 mm 4 m/S 599 mmHg 45%
    08:00 +21°C° 0 mm 4 m/S 600 mmHg 36%
    09:00 +23°C° 0 mm 4 m/S 600 mmHg 30%
    10:00 +27°C° 0 mm 4 m/S 601 mmHg 24%
    11:00 +29°C° 0 mm 3 m/S 601 mmHg 17%
    12:00 +30°C° 0 mm 3 m/S 601 mmHg 17%
    13:00 +30°C° 0 mm 4 m/S 601 mmHg 16%
    14:00 +32°C° 0 mm 4 m/S 600 mmHg 15%
    15:00 +29°C° 0 mm 3 m/S 600 mmHg 19%
    16:00 +28°C° 0 mm 3 m/S 599 mmHg 23%
    17:00 +26°C° 0 mm 2 m/S 599 mmHg 28%
    18:00 +24°C° 0 mm 2 m/S 598 mmHg 35%
    19:00 +21°C° 0 mm 2 m/S 598 mmHg 41%
    20:00 +19°C° 0 mm 1 m/S 598 mmHg 48%
    21:00 +18°C° 0 mm 2 m/S 598 mmHg 50%
    22:00 +17°C° 0 mm 2 m/S 598 mmHg 52%
    23:00 +16°C° 0 mm 3 m/S 598 mmHg 54%
    Mehr zeigen